EN

Hourly Weather Dzialyn

Today, 21 October, Wednesday

Time Temperature Precipitation Wind Pressure Humidity
00:00 +8°C° 0 mm 5 mps 752 mmHg 77%
01:00 +8°C° 0 mm 4 mps 751 mmHg 77%
02:00 +8°C° 0.1 mm 5 mps 751 mmHg 76%
03:00 +8°C° 0.1 mm 5 mps 751 mmHg 74%
04:00 +8°C° 0.1 mm 5 mps 750 mmHg 73%
05:00 +8°C° 0.1 mm 5 mps 750 mmHg 74%
06:00 +8°C° 0.1 mm 5 mps 750 mmHg 74%
07:00 +8°C° 0.1 mm 4 mps 750 mmHg 75%
08:00 +8°C° 0 mm 4 mps 750 mmHg 76%
09:00 +10°C° 0 mm 4 mps 750 mmHg 76%
10:00 +10°C° 0 mm 4 mps 750 mmHg 76%
11:00 +10°C° 0 mm 4 mps 750 mmHg 76%
12:00 +10°C° 0 mm 4 mps 750 mmHg 76%
13:00 +10°C° 0 mm 4 mps 750 mmHg 76%
14:00 +10°C° 0 mm 4 mps 750 mmHg 76%
15:00 +10°C° 0 mm 3 mps 750 mmHg 76%
16:00 +10°C° 0 mm 3 mps 749 mmHg 76%
17:00 +10°C° 0 mm 3 mps 749 mmHg 75%
18:00 +10°C° 0 mm 3 mps 749 mmHg 74%
19:00 +11°C° 0 mm 3 mps 750 mmHg 73%
20:00 +11°C° 0 mm 4 mps 749 mmHg 74%
21:00 +11°C° 0 mm 4 mps 749 mmHg 74%
22:00 +11°C° 0 mm 4 mps 749 mmHg 75%
23:00 +10°C° 0 mm 4 mps 749 mmHg 77%

Tomorrow, 22 October, Thursday

Time Temperature Precipitation Wind Pressure Humidity
00:00 +10°C° 0 mm 4 mps 749 mmHg 79%
01:00 +9°C° 0 mm 5 mps 749 mmHg 81%
02:00 +9°C° 0 mm 5 mps 749 mmHg 81%
03:00 +9°C° 0 mm 5 mps 748 mmHg 81%
04:00 +8°C° 0 mm 5 mps 748 mmHg 81%
05:00 +9°C° 0 mm 5 mps 748 mmHg 80%
06:00 +9°C° 0 mm 5 mps 748 mmHg 79%
07:00 +9°C° 0 mm 6 mps 749 mmHg 78%
08:00 +11°C° 0 mm 6 mps 749 mmHg 74%
09:00 +14°C° 0 mm 7 mps 749 mmHg 70%
10:00 +15°C° 0 mm 7 mps 749 mmHg 66%
11:00 +16°C° 0 mm 7 mps 749 mmHg 65%
12:00 +17°C° 0 mm 7 mps 750 mmHg 64%
13:00 +18°C° 0 mm 7 mps 750 mmHg 63%
14:00 +17°C° 0 mm 6 mps 750 mmHg 67%
15:00 +16°C° 0 mm 5 mps 749 mmHg 71%
16:00 +15°C° 0 mm 4 mps 749 mmHg 76%
17:00 +15°C° 0 mm 4 mps 749 mmHg 78%
18:00 +14°C° 0 mm 4 mps 750 mmHg 80%
19:00 +13°C° 0 mm 4 mps 750 mmHg 83%
20:00 +13°C° 0 mm 4 mps 750 mmHg 84%
21:00 +13°C° 0 mm 4 mps 750 mmHg 86%
22:00 +12°C° 0 mm 3 mps 750 mmHg 87%
23:00 +12°C° 0 mm 3 mps 750 mmHg 88%

Day after tomorrow, 23 October, Friday

Time Temperature Precipitation Wind Pressure Humidity
00:00 +12°C° 0 mm 3 mps 749 mmHg 89%
01:00 +12°C° 0 mm 3 mps 749 mmHg 91%
02:00 +12°C° 0 mm 4 mps 749 mmHg 88%
03:00 +12°C° 0 mm 4 mps 749 mmHg 86%
04:00 +12°C° 0 mm 5 mps 748 mmHg 84%
05:00 +13°C° 0.1 mm 5 mps 748 mmHg 83%
06:00 +13°C° 0.1 mm 5 mps 748 mmHg 82%
07:00 +13°C° 0.1 mm 5 mps 748 mmHg 81%
08:00 +14°C° 0.1 mm 5 mps 748 mmHg 81%
09:00 +14°C° 0.1 mm 5 mps 748 mmHg 82%
10:00 +14°C° 0.1 mm 5 mps 748 mmHg 82%
11:00 +15°C° 0 mm 5 mps 747 mmHg 80%
12:00 +15°C° 0 mm 5 mps 747 mmHg 78%
13:00 +16°C° 0 mm 5 mps 747 mmHg 76%
14:00 +15°C° 0 mm 4 mps 747 mmHg 78%
15:00 +15°C° 0 mm 4 mps 747 mmHg 80%
16:00 +16°C° 0 mm 3 mps 747 mmHg 82%
17:00 +14°C° 0 mm 3 mps 747 mmHg 82%
18:00 +14°C° 0 mm 3 mps 748 mmHg 82%
19:00 +14°C° 0 mm 3 mps 748 mmHg 82%
20:00 +14°C° 0 mm 2 mps 748 mmHg 84%
21:00 +13°C° 0 mm 2 mps 748 mmHg 87%
22:00 +12°C° 0 mm 2 mps 748 mmHg 89%
23:00 +12°C° 0 mm 2 mps 747 mmHg 90%

24 October, Saturday

Time Temperature Precipitation Wind Pressure Humidity
00:00 +12°C° 0 mm 2 mps 747 mmHg 90%
01:00 +12°C° 0 mm 2 mps 747 mmHg 91%
02:00 +12°C° 0.4 mm 2 mps 747 mmHg 92%
03:00 +13°C° 0.4 mm 2 mps 746 mmHg 94%
04:00 +12°C° 0.4 mm 3 mps 746 mmHg 96%
05:00 +12°C° 1.6 mm 3 mps 745 mmHg 96%
06:00 +12°C° 1.6 mm 4 mps 745 mmHg 96%
07:00 +12°C° 1.6 mm 5 mps 744 mmHg 96%
08:00 +12°C° 1.7 mm 5 mps 744 mmHg 93%
09:00 +13°C° 1.7 mm 6 mps 744 mmHg 91%
10:00 +12°C° 1.7 mm 7 mps 744 mmHg 88%
11:00 +12°C° 0.1 mm 7 mps 744 mmHg 82%
12:00 +12°C° 0.1 mm 8 mps 744 mmHg 77%
13:00 +12°C° 0.1 mm 8 mps 745 mmHg 72%
14:00 +11°C° 0.5 mm 8 mps 745 mmHg 74%
15:00 +10°C° 0.5 mm 7 mps 745 mmHg 75%
16:00 +9°C° 0.5 mm 7 mps 746 mmHg 77%
17:00 +9°C° 0.1 mm 7 mps 747 mmHg 77%
18:00 +8°C° 0.1 mm 7 mps 747 mmHg 77%
19:00 +8°C° 0.1 mm 7 mps 748 mmHg 77%
20:00 +6°C° 0 mm 7 mps 748 mmHg 78%
21:00 +6°C° 0 mm 7 mps 749 mmHg 78%
22:00 +6°C° 0 mm 7 mps 749 mmHg 79%
23:00 +6°C° 0 mm 7 mps 750 mmHg 80%

25 October, Sunday

Time Temperature Precipitation Wind Pressure Humidity
00:00 +5°C° 0 mm 7 mps 750 mmHg 81%
01:00 +5°C° 0 mm 6 mps 750 mmHg 82%
02:00 +5°C° 0 mm 6 mps 751 mmHg 85%
03:00 +4°C° 0 mm 6 mps 751 mmHg 87%
04:00 +5°C° 0 mm 5 mps 751 mmHg 90%
05:00 +5°C° 0 mm 5 mps 752 mmHg 91%
06:00 +5°C° 0 mm 4 mps 752 mmHg 93%
07:00 +4°C° 0 mm 4 mps 752 mmHg 95%
08:00 +6°C° 0 mm 4 mps 752 mmHg 89%
09:00 +7°C° 0 mm 4 mps 753 mmHg 84%
10:00 +8°C° 0 mm 4 mps 753 mmHg 78%
11:00 +10°C° 0 mm 4 mps 753 mmHg 74%
12:00 +11°C° 0 mm 4 mps 753 mmHg 71%
13:00 +11°C° 0 mm 3 mps 753 mmHg 67%
14:00 +11°C° 0 mm 3 mps 753 mmHg 70%
15:00 +10°C° 0 mm 2 mps 753 mmHg 73%
16:00 +9°C° 0 mm 2 mps 753 mmHg 76%
17:00 +9°C° 0 mm 1 mps 753 mmHg 78%
18:00 +9°C° 0 mm 1 mps 753 mmHg 80%
19:00 +8°C° 0 mm 1 mps 753 mmHg 82%
20:00 +8°C° 0 mm 1 mps 753 mmHg 82%
21:00 +8°C° 0 mm 1 mps 754 mmHg 83%
22:00 +6°C° 0 mm 2 mps 754 mmHg 84%
23:00 +6°C° 0 mm 2 mps 754 mmHg 85%

26 October, Monday

Time Temperature Precipitation Wind Pressure Humidity
00:00 +6°C° 0 mm 2 mps 754 mmHg 85%
01:00 +5°C° 0 mm 2 mps 753 mmHg 86%
02:00 +5°C° 0 mm 2 mps 753 mmHg 87%
03:00 +4°C° 0 mm 3 mps 753 mmHg 87%
04:00 +4°C° 0 mm 3 mps 753 mmHg 88%
05:00 +4°C° 0 mm 3 mps 753 mmHg 88%
06:00 +4°C° 0 mm 3 mps 753 mmHg 88%
07:00 +4°C° 0 mm 3 mps 754 mmHg 88%
08:00 +5°C° 0 mm 4 mps 754 mmHg 82%
09:00 +7°C° 0 mm 4 mps 754 mmHg 75%
10:00 +9°C° 0 mm 5 mps 754 mmHg 68%
11:00 +9°C° 0 mm 5 mps 753 mmHg 65%
12:00 +10°C° 0 mm 5 mps 753 mmHg 62%
13:00 +12°C° 0 mm 5 mps 753 mmHg 60%
14:00 +10°C° 0 mm 5 mps 753 mmHg 63%
15:00 +10°C° 0 mm 4 mps 753 mmHg 67%
16:00 +8°C° 0 mm 4 mps 753 mmHg 71%
17:00 +8°C° 0 mm 4 mps 753 mmHg 74%
18:00 +7°C° 0 mm 4 mps 753 mmHg 76%
19:00 +6°C° 0 mm 4 mps 753 mmHg 79%
20:00 +6°C° 0 mm 4 mps 753 mmHg 81%
21:00 +6°C° 0 mm 4 mps 754 mmHg 83%
22:00 +5°C° 0 mm 4 mps 754 mmHg 86%
23:00 +5°C° 0 mm 4 mps 754 mmHg 87%

27 October, Tuesday

Time Temperature Precipitation Wind Pressure Humidity
00:00 +5°C° 0 mm 4 mps 754 mmHg 88%
01:00 +5°C° 0 mm 4 mps 754 mmHg 89%
02:00 +4°C° 0 mm 4 mps 754 mmHg 90%
03:00 +4°C° 0 mm 3 mps 754 mmHg 91%
04:00 +4°C° 0 mm 3 mps 754 mmHg 92%
05:00 +4°C° 0 mm 3 mps 754 mmHg 92%
06:00 +3°C° 0 mm 3 mps 754 mmHg 92%
07:00 +3°C° 0 mm 3 mps 754 mmHg 92%
08:00 +5°C° 0 mm 3 mps 755 mmHg 86%
09:00 +7°C° 0 mm 3 mps 755 mmHg 80%
10:00 +8°C° 0 mm 3 mps 755 mmHg 74%
11:00 +9°C° 0 mm 3 mps 755 mmHg 71%
12:00 +11°C° 0 mm 3 mps 755 mmHg 68%
13:00 +13°C° 0 mm 2 mps 755 mmHg 65%
14:00 +12°C° 0 mm 2 mps 755 mmHg 70%
15:00 +10°C° 0 mm 2 mps 755 mmHg 74%
16:00 +10°C° 0 mm 2 mps 756 mmHg 78%
17:00 +10°C° 0 mm 1 mps 756 mmHg 81%
18:00 +10°C° 0 mm 1 mps 756 mmHg 83%
19:00 +9°C° 0 mm 1 mps 756 mmHg 86%
20:00 +9°C° 0 mm 1 mps 756 mmHg 86%
21:00 +9°C° 0 mm 1 mps 757 mmHg 87%
22:00 +8°C° 0 mm 1 mps 757 mmHg 88%
23:00 +8°C° 0 mm 1 mps 757 mmHg 88%
Show more